View from above orbital plane
|
View from above satellite
|
Ground track
|
The orbit data is extracted from the following two-line orbital elements,
1 33745U 99025DJJ 22180.93039128 .00000829 00000-0 47533-3 0 9999
2 33745 99.1307 168.7108 0060562 230.6263 128.9534 14.11396258481404
Epoch (UTC): | 29 June 2022 22:19:45 |
Eccentricity: | 0.0060562 |
inclination: | 99.1307° |
perigee height: | 811 km |
apogee height: | 898 km |
right ascension of ascending node: | 168.7108° |
argument of perigee: | 230.6263° |
revolutions per day: | 14.11396258 |
mean anomaly at epoch: | 128.9534° |
orbit number at epoch: | 48140 |
The dashed part of the orbit path shows where the satellite is in the earth's shadow,
|
|